This is the latest recevied weather packets stored in our database for station/object VA3JLF-1. If no packets are shown the sender has not sent any weather packets the latest 10 day(s).
| Time | Temp. | Humidity | Pressure | Rain* | Wind** | Luminosity | Snow |
|---|---|---|---|---|---|---|---|
| 1777872359 | 6.67° C | 99% | 1003.9 hPa | 0 mm | - | - | - |
| 1777871160 | 6.67° C | 99% | 1003.9 hPa | 0 mm | - | - | - |
| 1777870559 | 6.67° C | 99% | 1004.2 hPa | 0 mm | - | - | - |
| 1777869958 | 6.67° C | 99% | 1004.4 hPa | 0 mm | - | - | - |
| 1777869359 | 6.67° C | 99% | 1004.2 hPa | 0 mm | - | - | - |
| 1777868758 | 6.67° C | 99% | 1004.2 hPa | 0 mm | - | - | - |
| 1777868158 | 6.67° C | 99% | 1004.5 hPa | 0 mm | - | - | - |
| 1777867557 | 6.67° C | 99% | 1004.8 hPa | 0.51 mm | - | - | - |
| 1777866958 | 7.22° C | 99% | 1004.7 hPa | 0.76 mm | - | - | - |
| 1777866358 | 7.22° C | 99% | 1004.7 hPa | 1.02 mm | - | - | - |
| 1777865758 | 7.22° C | 99% | 1004.9 hPa | 1.27 mm | - | - | - |
| 1777865158 | 7.22° C | 99% | 1005 hPa | 1.27 mm | - | - | - |
| 1777864558 | 7.22° C | 99% | 1005.2 hPa | 1.52 mm | - | - | - |
| 1777863957 | 7.22° C | 99% | 1005.4 hPa | 1.02 mm | - | - | - |
| 1777863358 | 7.22° C | 99% | 1005.4 hPa | 0.76 mm | - | - | - |
| 1777862758 | 7.22° C | 99% | 1005 hPa | 0.51 mm | - | - | - |
| 1777862158 | 7.78° C | 99% | 1005.2 hPa | 0.51 mm | - | - | - |
| 1777861563 | 7.78° C | - | - | 0.51 mm | - | - | - |
| 1777861558 | 7.78° C | 99% | 1005 hPa | 0.51 mm | - | - | - |
| 1777860959 | 7.78° C | 99% | 1005.4 hPa | 0.25 mm | - | - | - |
| 1777860359 | 7.78° C | 99% | 1005.1 hPa | 0.51 mm | - | - | - |
| 1777859758 | 7.22° C | 99% | 1005 hPa | 0.51 mm | - | - | - |
| 1777859158 | 7.22° C | 98% | 1005.2 hPa | 0.51 mm | - | - | - |
| 1777858558 | 7.22° C | 96% | 1005.4 hPa | 0.25 mm | - | - | - |
| 1777857958 | 6.67° C | 96% | 1005.3 hPa | 0.25 mm | - | - | - |
* Rain latest hour (hover to see other rain measurements)
** Current wind speed in m/s (hover to see current wind gust speed)